Location: San Martino di Castrozza
(46.2667°N, 11.8000°E)
Time: 15:56:16
(UTC+00:00)

Cosmos 1943 Rocket - Pass Details

Date: 23 April 2021
Orbit: 812 x 843 km, 71.0° (Epoch: 13 May)

Event Time Altitude Azimuth Distance (km) Brightness Sun altitude
Exits shadow 00:51:58 22° 125° (SE) 1,769 3.8 -27.0°
Maximum altitude 00:53:26 24° 102° (ESE) 1,667 3.8 -26.9°
Drops below altitude 10° 00:57:52 10° 50° (NE) 2,462 5.5 -26.5°
Sets 01:00:43 0° 37° (NE) 3,397 6.7 -26.2°
